Theta_e
333 326 327 323 325 321 316 314 303 306 305 300 302 304 302 310 311 307 308 311 307 312 320 321 321 318 314 320 321 325 332 328 326 317 321 338 347 348 351 353 353 353 350 350 353 353 355 355 355 356 356 356 356 356 356 356 356 356 355 355 355 355 353 352 353 353 352 353 353 352 352 352 352 351 351 350 351 350 350 351 351 351 350 350 350 349 349 348 348 349 349 348 346 345 345 344 345
324 328 327 323 322 321 311 314 305 304 301 299 301 305 306 309 308 306 307 309 319 321 322 322 323 323 326 327 325 324 329 335 336 336 341 344 347 347 353 355 355 351 350 350 350 352 353 354 355 355 356 356 355 355 355 355 356 356 356 356 355 353 353 352 352 352 352 353 352 352 352 352 351 351 350 350 352 351 352 350 349 349 348 349 349 348 348 348 349 348 347 347 346 345 345 345 344
327 324 316 318 319 318 318 312 300 300 299 296 300 304 309 306 305 307 310 318 321 323 324 325 325 323 323 323 319 322 324 339 339 339 340 346 340 345 351 355 355 353 351 349 350 351 352 352 354 354 356 356 356 356 356 356 355 355 355 354 353 353 352 352 352 352 353 352 352 352 352 352 351 351 350 350 351 351 351 351 348 347 348 348 348 348 348 347 347 347 347 346 345 345 345 345 344
334 321 315 314 312 318 311 308 302 300 299 301 301 305 307 307 306 309 312 319 322 321 322 322 319 330 329 318 324 332 331 334 341 339 338 341 344 348 352 354 355 352 350 349 349 350 352 354 354 354 355 355 355 355 355 355 355 355 354 354 353 352 352 352 352 353 353 352 352 352 352 352 351 351 350 350 351 351 351 351 350 348 347 348 347 347 347 347 347 347 347 346 345 346 345 344 343
324 319 318 312 313 307 305 305 302 301 297 302 300 306 307 307 308 308 309 311 313 320 320 322 322 327 333 330 328 325 332 337 339 343 343 346 350 350 353 356 356 352 349 349 349 350 352 352 354 354 354 355 355 355 355 355 355 354 354 353 353 353 352 352 353 353 353 352 352 352 352 351 351 350 350 351 351 350 350 348 350 347 346 346 347 349 349 348 347 346 346 347 347 347 345 344 344
320 316 318 318 309 317 308 301 301 300 303 306 304 305 307 308 308 308 309 310 313 316 321 322 320 321 323 331 338 335 340 330 340 342 346 345 350 354 355 357 354 352 350 351 351 351 353 353 353 353 354 355 355 355 355 355 355 355 354 354 354 353 353 353 353 353 353 353 352 351 350 350 349 350 350 351 350 349 348 348 347 347 346 346 346 347 346 346 346 346 346 347 347 346 344 343 345
315 313 311 314 315 314 302 300 301 302 304 307 305 306 307 307 308 308 308 308 311 313 318 321 324 323 325 332 337 341 347 346 340 342 348 349 352 354 355 353 352 352 353 352 351 350 352 352 353 353 354 354 355 354 354 354 354 354 354 353 353 353 353 353 353 353 352 352 351 350 350 350 348 348 349 350 350 349 348 349 348 346 346 346 346 346 346 345 346 346 347 347 346 345 345 346 346
318 310 308 304 303 304 300 301 301 304 304 307 308 307 307 308 308 307 307 307 308 309 314 321 324 321 327 333 328 341 344 346 345 348 349 351 353 354 355 352 351 352 352 353 352 350 353 351 353 353 354 354 354 354 354 354 353 354 354 353 353 353 353 353 353 352 352 351 350 350 350 349 348 347 348 348 349 348 350 349 348 347 346 346 346 346 346 346 346 346 348 347 346 346 345 346 345
315 311 313 304 301 303 300 299 301 306 306 307 308 308 312 308 309 308 307 308 311 314 316 319 323 318 323 328 331 340 342 346 348 349 349 352 354 354 354 351 351 350 352 352 352 353 353 352 352 352 353 353 353 354 353 353 353 354 353 353 353 353 353 353 352 351 351 349 347 348 349 349 349 349 348 347 347 350 349 347 346 346 346 346 346 346 347 348 347 348 348 347 346 345 345 345 344
312 312 306 303 303 299 299 300 300 303 305 307 307 308 308 309 308 309 308 307 308 312 318 321 323 318 324 329 333 338 342 347 348 348 351 354 354 355 354 354 352 352 351 351 351 351 352 353 352 352 352 353 353 353 353 353 353 353 353 353 353 352 353 352 351 351 350 348 345 347 349 349 349 349 349 349 348 349 348 347 345 346 346 346 346 346 346 346 346 346 346 346 345 345 344 344 343
306 310 312 302 299 298 299 299 301 304 305 307 307 308 309 311 309 308 308 308 311 309 316 321 320 320 328 329 334 346 348 346 346 346 351 353 354 354 353 354 352 352 352 353 350 349 353 352 354 352 352 353 353 352 352 352 352 352 352 352 352 352 351 351 351 350 349 348 347 345 348 349 349 349 349 348 347 348 348 347 346 347 347 346 346 346 346 345 345 345 345 345 345 344 344 342 342
305 304 306 300 298 299 301 301 302 304 306 306 305 308 311 310 311 308 308 306 309 309 315 322 319 325 326 326 333 343 347 346 347 350 352 354 352 353 353 351 352 351 355 352 351 349 350 352 352 354 352 353 352 352 351 352 351 351 351 352 352 352 351 350 349 348 348 347 347 349 349 349 349 349 349 348 348 348 347 347 347 346 346 346 346 345 345 344 344 344 343 343 343 343 343 343 343
306 307 303 300 300 301 302 302 302 303 304 305 305 308 311 310 309 309 310 309 309 308 316 321 328 326 324 323 337 342 342 347 349 351 352 351 351 351 352 351 353 353 354 352 350 348 348 349 348 352 353 352 351 352 352 351 351 351 351 351 351 351 350 349 348 348 349 349 349 350 350 349 349 348 348 348 347 348 347 347 346 346 346 346 345 344 344 343 343 343 343 342 342 342 341 342 342
306 309 305 299 303 301 301 301 303 301 301 305 308 309 311 311 314 315 314 310 309 308 320 321 329 325 328 330 334 336 341 347 347 349 349 352 351 351 351 352 353 355 353 350 347 347 347 346 347 348 352 353 352 353 352 351 349 351 350 350 351 350 350 349 348 349 349 349 349 349 349 349 348 348 348 347 348 347 347 346 346 346 346 345 345 344 342 342 342 342 342 342 342 341 341 341 342
307 310 306 303 301 301 303 300 301 301 301 306 308 308 308 315 314 314 313 309 308 315 324 332 328 326 324 327 327 334 341 345 348 351 350 349 349 350 350 353 355 351 352 348 348 348 347 347 347 348 348 346 352 351 349 348 345 345 344 344 345 349 349 349 349 349 349 349 350 349 349 349 349 348 348 347 347 346 346 345 346 346 345 344 344 342 341 341 341 341 341 341 341 340 341 342 342
310 308 306 301 299 300 302 301 303 301 302 306 308 309 307 314 317 315 316 317 321 329 328 324 333 324 325 324 331 337 343 346 348 349 349 348 349 348 349 351 348 350 352 352 349 348 349 348 348 349 349 349 352 352 351 344 344 341 341 342 342 344 346 347 349 349 349 349 349 349 348 349 348 348 348 347 347 346 346 345 346 345 344 344 343 341 341 341 341 341 341 341 341 341 341 341 341
312 310 302 301 298 300 302 302 303 299 305 307 308 308 305 310 318 320 329 325 324 327 326 331 328 333 327 331 334 343 345 347 347 348 346 345 345 345 347 347 345 346 348 350 351 350 350 348 347 351 350 351 347 344 345 345 342 340 341 337 342 342 347 348 348 349 349 349 349 348 348 346 347 346 347 344 347 347 347 346 345 345 344 344 343 341 341 341 341 341 340 340 340 341 340 340 340
310 303 301 299 301 300 304 303 304 306 305 306 306 307 306 306 314 320 324 320 323 325 329 331 332 337 339 340 344 345 345 345 346 344 342 342 344 344 344 344 344 344 344 345 347 346 345 346 347 349 346 348 348 342 343 344 340 343 344 343 345 346 346 347 348 348 347 346 345 347 345 348 346 344 345 345 345 347 346 345 345 345 344 343 342 342 342 341 341 341 340 339 339 341 340 337 337
305 303 301 298 302 304 308 307 307 306 305 307 307 308 307 310 314 320 317 315 320 319 327 327 327 332 337 340 342 342 344 345 345 343 342 343 341 342 341 343 344 342 344 345 347 346 347 349 348 345 348 345 341 342 346 342 341 341 343 344 346 345 345 345 347 347 345 343 342 342 341 342 345 343 344 343 341 345 345 345 345 344 344 344 343 343 342 342 342 342 340 341 340 339 339 336 335
307 303 299 300 305 307 308 308 307 308 307 307 306 307 307 310 315 320 320 320 321 319 318 323 325 325 331 337 339 341 343 344 345 342 342 342 342 341 342 341 341 344 342 344 344 346 346 351 346 350 346 342 346 343 345 348 347 346 341 343 345 350 348 346 346 343 342 341 343 342 343 342 341 340 340 340 339 343 345 344 344 344 343 344 343 343 343 343 342 342 342 340 340 338 338 338 334
306 303 301 303 306 305 307 308 308 307 308 307 307 307 307 310 315 318 318 317 316 317 321 320 318 325 328 337 339 341 342 341 342 342 343 342 342 345 342 342 344 341 343 344 342 342 343 348 347 344 342 343 345 344 341 343 344 344 342 346 346 346 344 345 346 345 344 343 342 342 341 341 341 341 340 341 339 343 341 341 343 343 343 343 343 342 341 342 342 339 337 338 337 337 337 338 337
307 303 305 306 308 304 307 308 307 307 307 307 307 305 306 311 311 315 315 312 314 316 318 319 323 324 332 336 338 341 341 340 341 341 342 342 342 344 345 345 346 346 343 339 341 343 342 341 342 342 345 344 344 344 344 344 345 344 344 346 345 347 347 346 344 344 343 343 344 344 344 341 338 341 340 340 341 340 341 338 339 339 340 339 342 341 341 340 340 339 335 335 337 339 337 337 337
301 305 305 307 307 305 308 307 307 306 306 306 305 307 309 307 308 312 315 313 318 322 322 325 324 328 331 339 339 338 340 340 340 340 341 342 343 344 343 343 342 342 340 338 339 342 341 343 341 345 341 345 345 347 346 345 346 345 345 346 345 342 344 343 343 343 344 344 344 344 341 342 341 343 342 342 340 338 337 341 344 343 338 340 340 340 339 339 340 342 341 339 339 338 335 335 334
305 302 306 306 308 306 308 306 307 306 306 306 308 309 306 306 304 310 310 315 318 322 324 325 326 329 333 337 339 339 338 340 341 343 344 343 344 343 343 342 340 340 333 337 341 343 339 338 344 348 344 345 346 349 348 346 347 345 346 346 344 342 341 340 341 342 343 344 344 344 347 347 344 342 342 343 341 340 338 340 340 340 343 345 338 340 339 338 338 344 339 338 337 336 335 334 333
303 302 306 306 307 307 308 307 307 307 306 308 308 305 305 307 307 308 308 314 318 319 320 321 325 334 336 338 338 339 339 340 340 342 344 344 344 344 344 343 341 336 333 336 342 339 340 341 344 345 345 345 344 346 345 346 345 346 345 345 344 345 345 345 344 343 343 344 344 343 345 346 344 342 342 341 343 340 338 338 339 338 338 336 337 338 338 338 340 343 341 338 338 336 335 336 334
305 305 306 306 306 307 307 307 306 306 307 307 305 305 307 308 309 306 309 313 317 319 317 318 321 330 332 335 339 338 339 340 341 341 341 342 344 343 341 341 339 336 337 340 342 340 338 340 341 343 342 343 341 344 341 344 343 343 345 345 344 346 345 345 345 344 344 344 344 341 343 344 345 342 341 341 342 342 340 339 341 342 342 342 340 340 339 341 340 338 341 337 335 335 334 335 333
308 306 305 305 306 306 307 305 306 307 306 307 304 304 305 309 306 302 309 313 316 315 315 316 322 327 330 335 339 339 339 340 340 342 341 342 342 342 340 341 338 337 338 339 339 341 343 342 342 341 343 344 340 342 345 345 345 344 345 343 344 343 343 343 344 344 343 344 341 341 344 345 347 345 343 341 341 341 340 339 341 342 343 341 343 343 342 338 341 336 337 341 334 335 334 333 333
306 305 306 305 305 306 307 306 306 307 305 306 306 304 306 307 306 305 308 314 315 312 314 315 321 325 329 334 337 338 339 340 340 341 339 338 339 339 340 337 334 336 337 339 340 343 344 345 345 344 342 344 344 343 343 344 343 340 343 344 343 344 346 344 343 344 345 344 344 344 346 344 344 344 343 342 341 341 340 341 341 341 340 342 342 342 342 339 338 338 339 338 340 336 335 334 335
306 305 300 303 304 303 306 304 305 306 304 307 307 303 302 304 303 308 310 314 314 313 315 317 319 325 328 334 335 336 336 339 340 338 340 340 341 341 338 336 335 335 338 341 342 344 346 345 344 342 343 344 342 342 341 342 342 342 341 343 344 345 344 343 342 344 344 344 344 343 344 343 341 342 344 341 339 338 338 337 340 340 342 343 342 341 340 338 338 338 337 337 338 338 335 335 331
306 304 302 300 301 300 304 306 306 305 305 307 306 294 298 303 306 309 312 315 313 312 314 317 319 325 328 333 333 335 337 338 338 339 340 340 340 340 338 338 338 338 337 340 342 342 343 344 344 343 343 342 344 341 342 340 340 339 341 344 345 344 344 343 344 344 344 342 343 343 343 343 342 342 340 340 339 341 341 342 341 342 344 344 343 341 340 341 338 338 335 335 335 339 337 334 334
299 302 302 298 297 297 304 304 305 302 306 306 306 296 299 303 306 309 311 315 313 312 313 316 319 323 328 331 332 333 336 338 339 340 342 341 341 339 338 338 339 341 340 341 342 343 343 342 344 344 343 342 341 341 341 342 343 343 341 342 343 345 345 344 343 344 343 342 343 343 345 343 342 343 343 342 341 340 339 339 339 342 343 342 341 342 340 340 339 337 339 334 333 335 333 332 332
301 297 294 298 296 298 303 306 304 301 304 307 304 297 299 303 306 309 311 314 313 312 312 315 319 321 327 331 329 332 335 338 339 340 340 338 339 336 337 337 339 340 340 341 342 342 342 343 344 343 343 342 343 342 345 342 343 342 342 342 345 346 344 343 343 343 343 342 343 343 345 343 343 343 343 341 341 340 340 338 339 341 339 344 342 341 340 338 339 336 336 336 333 336 331 331 337
300 297 296 295 297 297 300 304 306 305 304 305 303 297 300 301 307 310 311 312 312 311 312 315 320 323 326 330 330 331 334 336 338 337 337 339 337 335 336 337 337 339 339 341 341 342 341 342 342 342 341 341 342 343 345 345 345 344 344 344 344 345 342 341 341 342 342 342 341 341 344 344 342 342 342 342 342 340 338 335 338 339 340 341 339 339 336 337 336 336 337 336 337 334 333 333 334
296 298 295 298 297 297 296 303 305 305 304 300 303 299 301 304 307 309 312 312 311 310 311 313 320 323 326 329 330 331 333 334 333 335 337 338 336 336 337 337 338 340 341 342 342 342 341 341 342 343 340 342 342 342 344 346 346 345 343 343 343 342 342 340 340 340 340 340 341 341 343 343 342 340 340 341 341 339 336 334 338 337 336 338 336 336 336 336 337 338 336 339 338 335 335 334 332
295 296 296 296 299 299 298 299 302 304 303 301 302 300 301 304 308 310 312 312 311 311 310 313 320 323 325 326 328 330 331 332 334 336 338 338 337 336 337 339 339 339 340 342 342 342 341 340 340 343 342 340 342 344 346 348 347 345 343 343 342 342 341 339 338 337 337 339 339 344 343 344 342 341 340 341 340 339 338 337 333 335 337 340 339 336 337 337 338 338 337 337 337 339 336 335 333
298 299 298 297 297 298 298 302 305 304 301 300 301 299 300 302 305 309 312 312 311 311 312 314 320 321 324 325 326 329 330 331 335 337 338 338 337 336 337 339 339 337 339 340 339 340 339 342 341 339 340 342 342 343 345 344 342 340 338 338 337 336 337 336 338 336 337 335 338 338 339 343 343 343 341 341 341 340 339 338 338 336 338 339 339 334 335 338 337 337 336 335 335 334 336 331 334
301 301 300 298 298 300 302 303 305 305 302 300 301 301 301 302 304 307 311 312 311 310 311 312 319 320 322 324 326 328 330 331 334 336 338 337 337 335 337 339 337 337 338 339 339 339 340 340 339 338 337 337 338 339 340 337 337 335 335 335 333 335 333 336 336 337 336 336 337 336 339 340 340 342 341 340 339 339 338 339 335 336 337 337 338 338 338 339 340 340 337 334 334 331 332 333 334
300 300 299 298 299 297 301 301 305 306 303 300 302 301 302 303 305 306 310 311 309 309 311 314 317 320 322 324 327 328 330 332 333 334 335 337 334 332 335 335 335 334 336 339 339 339 340 339 338 338 338 338 339 342 339 339 337 335 334 332 332 332 331 331 330 335 337 338 339 338 338 341 340 340 340 341 341 339 338 338 337 337 337 336 339 339 339 337 337 336 335 332 332 329 328 332 334
301 299 298 297 298 301 303 303 305 305 303 300 302 300 301 304 305 307 308 311 312 312 313 316 316 317 320 324 327 328 329 329 331 333 335 336 332 329 331 334 335 336 337 337 338 339 340 340 338 339 340 341 341 340 337 336 336 337 336 333 333 331 334 337 333 332 333 335 339 338 339 339 338 339 339 341 341 340 339 338 336 337 338 336 336 338 338 338 337 335 332 329 330 330 328 333 333
299 298 296 295 299 297 296 302 303 304 302 300 302 301 302 305 307 307 311 314 314 314 314 316 317 318 321 324 326 327 328 329 329 330 332 335 331 327 328 331 334 336 336 336 337 337 338 339 337 337 343 342 338 338 338 339 339 340 339 337 336 336 335 335 335 335 334 332 335 336 337 338 336 336 335 335 339 340 341 339 338 338 339 340 336 335 335 335 335 334 332 330 330 326 328 330 336
299 300 298 298 298 299 299 300 303 305 304 305 303 302 301 303 302 304 309 314 314 313 314 316 318 320 324 326 327 328 328 330 329 330 333 333 332 327 327 329 331 333 334 335 336 337 338 339 339 340 340 337 334 330 339 339 339 339 337 337 336 333 331 330 331 330 332 331 330 334 335 337 335 334 335 335 334 335 335 335 336 337 339 339 337 333 333 332 331 332 332 333 330 327 328 332 334
298 300 300 300 301 300 300 302 301 299 298 302 301 294 294 301 302 303 306 311 311 314 313 314 317 319 323 323 324 327 330 331 330 330 331 333 335 331 329 327 327 331 332 334 339 338 340 339 340 338 336 334 331 330 339 337 337 336 334 331 326 325 326 327 326 326 325 328 328 330 330 332 333 334 333 334 333 334 333 332 331 331 333 335 336 337 336 333 332 332 335 335 330 332 333 330 330
296 297 301 301 301 302 301 301 300 296 293 300 303 293 290 300 302 304 307 311 310 313 314 315 315 317 321 321 324 327 327 328 330 332 332 331 335 332 328 327 325 328 332 335 337 339 340 340 337 337 335 333 332 330 337 338 335 335 334 330 328 328 326 327 328 330 330 326 327 330 330 333 332 333 333 333 331 330 332 333 334 333 331 332 333 334 334 336 333 334 336 335 333 335 335 330 330
295 303 302 301 301 301 301 301 300 298 301 304 303 299 293 295 301 305 307 307 307 309 312 314 315 317 318 322 324 326 326 328 329 330 332 333 335 335 328 328 327 327 330 335 336 338 338 338 337 335 332 330 329 329 336 338 335 334 333 331 330 329 328 327 330 330 330 328 328 329 330 331 331 331 331 330 332 331 333 333 333 333 331 330 329 329 330 332 334 336 336 336 335 333 334 329 327
298 303 303 300 301 301 301 300 299 300 298 295 299 301 294 294 301 306 307 303 304 305 310 312 314 316 320 321 323 324 325 326 327 328 331 333 335 336 334 334 332 331 329 331 334 336 336 335 337 333 331 330 332 331 333 336 334 334 333 331 330 331 328 328 328 327 326 329 329 329 331 330 331 332 332 330 331 330 332 333 333 332 331 330 329 329 331 331 333 335 334 334 333 334 335 334 331
302 305 304 302 301 301 301 299 298 298 295 291 298 300 292 292 300 302 306 304 303 306 311 313 315 317 319 322 323 321 321 323 326 328 330 333 336 338 339 337 335 337 331 331 331 332 331 331 329 328 328 328 326 329 336 335 335 335 332 332 330 327 327 326 326 325 326 328 329 331 330 329 329 330 332 331 331 330 331 332 331 331 331 330 330 330 331 331 332 333 334 334 335 334 335 335 333
306 304 302 301 301 301 301 300 299 296 289 293 299 301 296 290 298 300 301 302 306 308 311 313 313 316 314 320 320 321 321 325 327 327 329 332 335 338 338 338 337 333 328 329 325 328 331 331 329 325 323 328 326 325 325 330 336 334 332 331 329 328 328 327 325 326 324 326 326 327 328 329 329 329 330 332 332 331 332 331 331 331 332 332 329 329 329 328 331 332 332 333 333 334 334 335 334
303 301 299 299 298 300 298 297 298 289 287 295 299 300 300 289 294 301 304 307 309 310 307 310 312 313 316 318 320 320 322 324 326 325 324 331 332 334 332 323 325 325 327 324 325 324 326 329 329 329 327 326 327 325 326 327 335 335 333 333 330 330 329 327 325 325 325 325 326 326 326 327 328 329 330 330 331 331 331 330 331 331 330 331 329 330 330 329 330 330 330 330 332 333 333 333 334
301 300 299 293 290 291 287 292 286 288 287 296 300 300 296 294 299 305 305 308 311 311 310 310 312 311 313 315 317 321 322 323 324 324 326 329 329 323 324 324 322 322 322 323 324 324 325 327 329 330 330 330 327 327 327 328 335 335 333 331 332 331 329 326 326 325 326 325 325 325 324 324 325 327 328 329 329 329 329 329 330 329 328 328 328 326 328 329 330 329 329 330 329 329 330 332 333
299 297 296 292 287 285 283 287 289 291 294 300 298 302 294 298 303 307 306 308 309 312 313 312 312 312 311 312 315 320 322 322 323 322 325 328 322 320 319 320 320 319 322 322 322 324 327 329 330 332 331 332 330 330 329 331 335 335 334 332 332 330 328 327 326 325 326 325 325 325 325 324 325 328 328 328 327 328 329 330 329 327 326 328 328 330 329 327 328 326 328 327 328 329 330 330 329
298 301 298 296 293 288 282 287 284 286 290 296 300 295 292 292 300 308 310 311 310 312 313 315 315 315 315 314 315 318 322 321 324 326 326 323 320 322 321 322 321 321 321 323 324 326 329 328 329 333 334 334 334 333 335 335 333 333 333 333 331 331 328 326 325 327 327 326 325 325 325 326 327 327 327 327 326 325 326 326 326 326 328 328 328 327 327 327 326 325 326 327 327 327 328 328 328
301 301 301 296 293 299 289 290 291 289 289 292 295 293 297 298 307 310 312 310 309 311 311 314 313 313 315 319 317 318 322 324 326 325 325 325 322 322 322 323 324 324 326 327 327 329 329 328 329 329 331 333 336 336 337 336 335 333 334 334 332 332 329 327 326 327 328 327 327 326 326 327 328 327 327 325 324 324 324 323 324 326 327 327 327 326 325 324 323 322 322 323 323 323 324 324 323
300 299 295 297 303 300 293 291 297 292 289 288 296 296 298 303 304 307 310 310 311 312 313 313 313 317 317 316 318 320 322 322 326 324 324 322 321 320 321 324 324 325 326 326 326 328 328 326 327 329 330 334 336 337 337 334 335 334 333 333 333 332 330 328 327 328 328 328 328 327 326 326 328 327 325 325 323 323 323 322 323 324 325 326 326 324 323 323 323 322 322 322 322 323 323 320 321
300 294 298 304 305 303 297 288 290 288 285 286 295 290 294 294 290 304 304 307 310 311 312 313 316 317 317 317 318 319 320 323 325 325 324 322 321 320 323 324 324 325 326 326 325 327 329 329 329 329 330 331 333 335 334 334 334 333 332 332 332 332 330 330 329 327 327 326 325 325 326 326 326 326 325 324 324 323 322 320 320 321 322 322 322 322 321 321 322 320 320 319 319 321 320 321 321
300 299 306 296 290 289 296 291 284 284 283 286 290 294 294 295 295 301 303 307 308 310 311 311 312 313 315 316 318 319 320 321 322 322 323 322 321 320 321 322 324 325 325 325 325 326 327 328 329 329 328 329 331 331 332 333 333 332 332 332 332 331 331 329 327 327 328 326 324 323 324 324 326 325 324 324 322 320 320 319 320 319 320 320 321 321 321 320 320 318 317 316 318 319 318 319 320
303 304 300 304 300 296 291 291 293 292 286 285 286 293 289 300 301 301 304 309 308 310 311 312 312 314 314 315 317 317 318 319 320 319 320 321 322 323 324 324 323 323 325 326 327 326 326 327 328 329 329 328 328 329 332 332 333 332 331 332 332 331 329 327 327 328 326 325 322 323 323 324 324 323 323 322 320 319 319 318 318 318 318 318 319 319 320 319 319 318 317 317 318 317 316 316 317
296 297 296 298 300 302 298 298 293 291 287 287 286 286 292 300 306 305 306 309 309 311 310 312 312 313 314 315 316 316 316 317 319 319 318 319 320 322 323 324 324 324 324 327 326 326 325 327 326 326 327 327 326 327 329 330 331 331 332 332 331 329 326 324 325 326 325 324 324 322 324 325 323 322 323 321 319 319 318 319 317 317 316 318 319 319 320 320 319 318 318 318 317 317 316 317 319
299 297 295 296 295 294 289 288 296 295 291 287 286 285 295 302 307 308 308 312 311 312 312 312 312 313 314 315 316 317 317 317 317 317 318 319 322 321 322 323 324 323 323 323 325 326 326 327 329 328 327 327 327 327 328 328 329 331 331 331 330 330 326 323 324 324 325 324 323 322 324 323 323 322 322 320 319 320 320 319 318 316 316 316 317 318 319 319 318 318 319 320 318 316 316 316 318
Wind_Speed
9 9 7 8 8 8 7 7 9 8 9 12 11 11 10 11 8 2 6 6 9 4 1 2 6 4 8 6 8 10 12 9 6 6 5 4 7 12 12 17 17 16 15 14 14 14 14 14 14 14 15 16 17 17 18 18 18 17 17 17 16 15 16 15 13 12 14 14 14 13 13 13 12 12 10 9 10 12 11 11 11 11 11 11 12 11 10 11 11 11 11 11 10 9 9 10 10
9 7 6 6 8 7 8 8 7 7 10 11 13 12 12 4 3 10 10 1 9 6 2 2 3 3 3 6 3 4 11 11 12 10 8 7 11 10 18 15 14 16 14 14 14 13 13 15 14 15 15 16 17 17 17 18 18 18 17 16 16 16 15 15 13 13 14 13 14 13 13 13 12 12 11 9 7 10 9 10 11 11 10 10 11 10 9 10 11 10 11 10 10 10 9 10 10
6 6 7 7 7 9 6 8 10 10 10 11 10 13 7 4 7 8 2 1 3 3 2 3 1 6 8 4 8 5 7 11 12 11 8 9 13 11 15 15 16 15 15 12 13 13 12 15 13 15 16 16 16 17 17 17 17 17 17 17 18 16 16 14 14 14 13 13 13 13 13 13 13 12 11 9 8 8 8 7 9 9 9 8 10 10 9 9 10 10 10 10 10 10 10 10 9
11 8 7 8 7 7 7 7 10 11 10 9 7 14 11 7 4 6 5 4 4 3 4 7 8 4 7 9 6 7 10 8 10 10 7 8 8 12 15 15 15 15 13 12 13 13 12 15 14 16 16 16 16 17 17 18 18 18 17 18 17 17 16 15 15 14 13 13 13 12 12 12 12 12 12 10 7 7 8 8 8 9 9 9 9 10 9 9 8 9 9 10 10 10 10 10 10
8 7 9 8 8 7 7 8 10 10 12 7 7 5 3 7 4 8 6 3 0 6 7 2 0 3 7 6 1 3 7 9 9 8 7 8 11 12 16 15 14 15 14 14 13 13 14 18 15 16 15 16 17 17 18 18 18 18 18 18 18 17 16 16 15 13 13 12 12 12 12 11 11 12 10 9 8 9 10 10 8 9 8 8 7 6 7 7 8 9 9 10 11 10 10 11 10
8 7 7 8 7 7 7 9 10 13 12 10 10 4 5 5 6 3 4 6 4 6 7 5 5 9 7 8 6 5 5 3 8 8 8 8 13 16 16 14 13 14 15 13 13 13 15 16 15 14 16 18 17 17 18 18 18 17 17 17 17 17 16 15 14 13 12 12 12 13 12 11 11 10 8 7 9 10 9 7 9 8 9 9 8 8 8 7 7 7 9 10 11 11 10 10 11
7 7 7 7 9 7 8 10 11 11 12 15 10 4 3 6 4 3 5 6 6 8 6 8 5 5 3 5 9 7 8 6 6 8 7 12 14 14 15 13 12 14 15 13 13 13 18 15 15 15 15 18 17 17 17 18 17 18 17 16 16 15 15 14 13 13 13 12 12 12 13 11 10 8 7 7 8 8 9 9 9 8 9 8 9 8 7 7 7 8 8 10 11 10 9 9 8
7 9 7 9 7 7 10 11 12 9 10 14 9 3 1 2 2 5 5 5 10 10 11 8 7 8 4 9 5 5 8 7 8 11 13 13 14 13 12 13 13 13 14 13 13 14 17 15 15 15 15 15 17 17 19 19 19 16 15 15 15 14 14 13 13 12 11 12 13 13 13 12 11 10 8 6 8 11 13 12 10 8 5 9 8 8 8 8 8 7 9 10 10 10 8 7 6
8 11 3 8 10 7 9 11 11 12 8 5 7 2 7 7 8 6 5 8 5 8 11 10 10 9 7 6 8 8 7 7 11 12 14 14 14 13 9 11 12 12 13 13 14 15 16 15 15 15 16 16 18 19 19 18 17 16 16 15 15 13 12 13 13 12 11 10 9 10 13 13 12 11 9 8 9 11 15 13 11 7 7 8 8 7 8 8 7 9 10 10 10 8 7 5 5
8 8 8 7 8 11 10 10 11 10 15 5 3 5 2 2 7 8 8 6 10 5 8 8 8 10 8 11 7 6 6 9 11 12 13 13 13 12 11 10 11 13 13 13 14 15 13 17 14 14 15 15 17 17 17 16 16 15 15 14 13 12 11 12 12 12 12 13 11 10 13 13 12 10 9 10 9 12 14 14 12 11 11 11 10 9 9 10 11 9 9 9 9 8 6 5 5
8 8 8 8 10 10 11 9 10 11 9 3 5 4 1 3 7 8 8 11 7 9 8 8 10 9 10 8 6 6 7 9 11 13 13 13 13 11 11 10 11 12 13 14 14 13 13 15 16 13 13 14 15 15 15 15 15 15 15 14 13 12 12 11 11 11 11 11 12 13 14 13 12 12 10 12 12 13 13 13 13 12 12 11 10 11 10 10 10 10 9 8 7 7 5 3 4
9 9 8 10 10 10 9 10 10 10 8 4 8 6 4 6 3 7 9 12 7 11 7 6 7 8 12 7 2 7 9 10 11 12 12 12 11 12 10 9 11 12 13 14 15 13 14 13 13 15 13 13 14 14 14 15 15 15 14 15 13 13 11 11 11 10 11 11 10 10 10 11 13 14 12 10 11 12 13 13 13 12 12 12 11 10 9 9 10 10 9 9 6 5 4 3 3
11 7 9 9 9 10 10 10 8 3 3 9 9 7 0 9 9 7 8 10 10 11 9 11 3 8 8 7 7 8 10 12 11 11 12 11 11 10 10 10 10 13 12 14 14 15 15 13 12 13 13 14 13 13 13 13 13 13 13 13 13 13 14 13 12 11 11 10 10 10 10 10 12 13 12 12 11 12 12 12 12 12 12 13 12 11 9 9 9 8 8 7 6 4 4 4 3
10 8 8 10 10 12 11 7 9 7 8 9 7 5 2 5 2 6 7 10 10 12 8 10 7 8 10 7 8 8 10 12 12 12 11 10 10 9 11 10 12 12 12 12 13 15 14 14 12 12 12 11 10 9 12 12 13 12 13 13 13 13 13 14 12 11 11 10 11 10 10 11 12 12 12 12 11 11 10 11 12 12 12 13 12 11 10 9 9 8 8 7 6 4 4 4 3
11 8 8 9 10 11 9 10 8 7 9 8 9 4 5 5 4 8 10 10 12 5 9 7 7 10 3 5 6 8 12 13 13 12 11 12 11 10 11 10 11 12 9 12 11 13 13 12 13 12 12 11 9 8 7 10 13 12 11 12 9 12 13 13 12 11 11 10 9 11 10 11 12 11 12 12 12 12 11 11 11 12 13 12 13 11 10 9 8 8 8 7 6 4 3 4 3
9 8 7 9 11 11 7 11 10 7 2 6 9 4 7 3 6 8 6 9 7 6 7 7 0 1 12 11 9 14 14 14 13 12 12 12 12 11 12 12 10 9 6 5 12 10 11 13 8 6 9 9 8 6 8 11 12 10 11 11 9 11 12 13 11 10 11 10 11 10 10 10 10 10 12 11 12 12 11 9 12 12 12 12 12 12 11 9 9 9 8 7 6 5 3 3 4
8 8 9 9 12 11 7 8 8 9 6 2 4 4 10 6 5 6 5 7 8 8 10 7 5 4 11 2 9 19 16 14 13 13 12 11 10 10 10 9 10 7 4 5 4 6 9 10 14 9 5 7 8 5 7 11 12 14 11 7 11 9 11 11 9 9 8 9 9 8 6 7 6 7 9 9 12 9 8 11 11 12 13 13 12 12 11 10 10 9 9 8 7 7 7 5 4
7 9 10 11 10 12 7 8 5 3 3 6 2 2 6 8 8 5 6 9 7 9 6 4 7 11 13 12 16 17 16 15 14 14 12 11 10 10 9 9 10 9 9 7 7 8 8 9 10 10 7 6 7 7 5 8 9 8 10 10 9 10 10 11 8 7 7 6 6 3 2 4 3 6 6 8 7 9 9 10 11 12 12 13 13 12 11 11 11 10 9 9 9 10 11 8 7
9 9 11 12 10 10 8 3 5 3 4 5 5 3 5 4 3 5 8 11 11 13 11 11 8 9 11 16 14 16 16 15 15 13 14 14 11 11 10 9 9 10 8 8 8 11 8 6 7 11 9 7 12 7 7 7 11 7 7 8 7 9 9 8 7 6 5 5 5 3 5 8 4 5 2 1 4 5 8 9 9 10 11 12 13 12 12 11 11 10 9 9 10 11 8 8 7
12 11 12 13 12 9 3 4 6 6 7 1 4 5 8 4 5 7 7 9 9 14 10 9 9 12 11 15 15 15 15 15 13 13 13 12 11 10 8 9 9 9 10 6 7 6 4 4 5 7 9 10 9 8 7 8 9 7 7 7 7 6 6 5 6 6 5 5 4 1 2 4 5 3 4 5 2 4 6 7 8 9 11 12 12 10 11 10 11 10 9 11 9 7 8 8 6
9 13 12 11 13 14 7 4 5 3 3 3 4 2 7 6 3 7 7 10 14 9 11 12 12 10 15 16 15 15 14 14 14 12 11 12 10 7 8 7 7 9 7 5 3 5 2 5 3 6 10 9 12 8 8 7 9 8 7 7 7 6 6 5 3 4 3 4 5 3 4 3 4 5 3 3 2 1 4 5 6 6 5 7 10 8 8 8 8 7 7 8 7 8 6 4 4
8 14 16 16 8 6 7 3 3 1 1 6 3 7 7 6 5 11 7 7 6 9 12 12 15 16 12 17 17 14 15 14 12 12 12 12 11 10 8 8 7 6 10 7 3 5 9 9 6 9 11 12 13 11 9 9 10 10 9 8 8 7 6 5 3 0 2 2 4 7 4 5 3 3 3 3 1 2 5 4 4 5 6 6 8 6 6 6 6 6 7 7 6 4 3 3 4
12 13 15 15 15 7 6 4 3 3 7 10 7 7 6 6 7 6 10 11 6 4 7 4 9 12 14 14 14 15 15 14 13 13 12 11 11 10 9 7 7 6 6 7 0 3 3 10 11 9 12 11 14 13 11 8 7 8 9 8 9 8 3 4 4 2 3 4 4 3 5 7 6 3 3 2 3 2 3 3 5 2 7 5 6 6 5 7 6 3 4 7 6 4 5 5 4
14 12 11 15 16 10 6 2 2 6 7 6 8 5 7 6 10 7 8 2 10 7 5 4 2 12 12 13 13 13 13 14 14 13 12 11 11 10 8 7 8 8 9 4 3 2 11 12 9 11 11 13 11 11 10 9 8 9 8 8 8 10 8 6 4 4 3 2 2 4 2 2 3 3 3 2 2 2 4 2 3 8 7 4 6 4 6 6 7 10 7 6 4 5 4 5 5
15 15 14 10 12 12 13 8 7 7 9 7 5 8 10 7 10 3 10 6 8 7 8 10 9 13 11 12 13 13 12 12 12 11 10 9 10 8 7 6 7 12 8 4 4 3 8 7 8 11 11 13 11 10 10 8 8 8 8 7 8 10 8 6 6 5 4 4 3 3 2 2 2 3 2 3 2 2 2 2 2 3 3 8 9 5 3 2 3 4 2 4 4 4 4 4 4
14 14 16 11 8 9 10 12 11 11 7 8 10 12 10 10 6 9 9 9 7 5 8 9 10 10 11 11 12 12 12 12 11 11 11 9 9 9 8 7 9 10 8 6 5 6 5 8 10 10 10 10 11 10 9 9 9 9 8 8 7 7 7 6 5 4 5 5 4 2 4 3 2 2 2 2 1 2 1 0 3 4 2 4 4 6 6 10 10 6 8 4 4 5 4 4 4
11 18 18 17 12 10 10 13 13 12 11 10 12 12 13 11 6 9 13 7 9 8 8 10 10 10 10 10 10 11 12 12 12 10 10 9 10 9 9 8 9 8 8 7 5 7 6 9 10 10 9 9 9 9 8 9 8 7 6 7 6 6 7 8 5 3 4 4 6 8 6 4 2 2 1 2 1 2 1 2 1 1 3 2 4 3 5 3 4 5 9 9 3 4 3 4 5
7 7 12 18 15 11 11 12 13 10 12 13 10 12 14 14 10 12 14 10 9 9 9 10 11 10 10 11 11 10 10 10 10 10 11 11 8 9 9 8 10 7 7 8 6 7 8 10 11 10 9 7 8 9 9 8 9 7 5 4 5 6 7 5 5 4 2 3 3 3 4 3 2 2 2 2 1 0 1 1 1 2 2 3 2 3 3 3 1 3 7 14 7 2 3 3 3
15 11 11 13 16 14 14 14 13 13 10 11 12 13 17 12 14 17 11 12 12 10 10 11 11 10 10 11 11 10 10 10 9 9 10 8 8 8 10 12 12 10 7 6 8 7 9 9 9 10 9 8 9 9 8 8 7 8 7 6 5 5 5 5 5 4 3 3 4 3 3 3 3 4 3 4 3 4 3 2 3 3 1 1 2 2 4 2 3 2 6 8 10 4 4 3 6
11 11 10 12 14 16 18 15 15 14 12 12 12 13 13 15 15 17 10 8 9 12 11 11 10 10 10 10 10 10 10 10 10 9 9 8 8 9 12 12 12 10 8 7 9 9 8 7 6 7 9 9 9 7 6 7 8 9 7 6 6 6 5 5 5 4 4 3 4 5 5 4 4 4 4 4 4 2 4 3 2 2 1 1 0 2 1 2 1 4 3 8 8 9 5 4 3
11 13 11 11 12 13 17 16 16 17 12 13 12 12 11 16 19 19 16 15 13 12 13 12 11 10 10 10 9 10 11 10 10 10 10 9 8 11 13 12 11 9 7 8 11 12 10 9 7 7 9 10 9 8 7 7 7 5 6 6 6 6 5 4 4 5 5 5 4 5 5 4 5 5 4 3 5 4 4 3 3 2 1 1 0 1 1 2 1 2 2 4 5 5 7 8 2
11 11 13 12 14 10 14 19 19 17 13 14 12 11 11 14 19 23 18 16 16 15 14 13 11 10 10 10 12 11 10 9 10 11 10 11 11 11 12 13 11 10 9 8 10 11 11 10 10 10 10 9 8 7 6 6 7 7 5 5 5 5 3 3 4 4 4 4 4 4 4 4 5 5 5 6 4 5 3 3 3 1 3 1 0 1 0 2 2 1 3 1 2 3 1 8 8
11 13 11 13 13 12 14 18 15 18 13 16 16 10 11 16 18 23 17 16 17 15 15 13 11 10 10 10 10 10 11 10 10 11 11 11 11 10 10 12 12 11 11 10 10 10 10 11 10 11 10 8 8 7 6 6 6 7 6 5 5 5 4 4 4 4 4 4 4 4 3 3 3 4 4 5 5 4 3 3 3 3 2 0 1 1 1 1 1 3 3 3 2 1 5 3 1
10 12 12 11 14 14 13 15 15 16 17 14 18 14 14 10 3 17 15 14 15 15 15 13 11 9 10 11 11 11 10 11 11 12 13 12 11 12 12 11 12 11 9 10 9 9 9 9 9 9 9 7 7 7 6 5 5 6 6 5 5 5 4 3 4 3 3 3 4 4 4 5 4 4 5 4 4 4 7 5 4 3 4 4 3 3 3 2 2 2 3 3 2 2 4 2 3
9 10 12 12 14 14 16 11 15 16 20 15 15 17 17 9 8 9 11 12 13 14 13 13 12 11 11 11 11 12 11 11 10 10 13 13 14 13 11 12 12 9 9 10 9 8 8 7 7 8 9 7 6 6 6 6 6 5 6 6 6 5 4 3 2 3 3 3 3 4 5 5 4 4 3 3 5 2 2 6 10 9 6 5 4 3 1 3 2 2 2 2 2 3 3 3 3
12 12 11 13 11 11 13 12 12 15 15 15 15 13 16 17 11 12 11 13 13 13 13 11 12 12 12 12 12 11 10 10 9 10 14 12 12 11 10 11 9 10 9 10 10 9 8 8 8 7 4 6 5 5 6 6 7 6 7 6 5 4 4 4 2 2 1 3 3 4 4 3 4 5 4 4 4 3 3 3 7 5 5 4 5 6 5 3 4 3 2 2 3 2 2 4 6
9 10 11 12 12 10 12 15 11 11 12 15 16 15 15 17 16 11 12 13 13 13 13 12 13 12 13 12 12 12 12 11 11 12 13 14 13 10 6 8 9 9 9 10 9 9 9 8 9 9 6 5 6 8 8 8 7 7 7 6 6 5 4 4 3 2 2 3 2 4 4 3 5 5 5 5 4 4 3 4 6 6 5 4 3 4 4 3 2 3 3 1 3 2 2 6 7
6 8 9 10 12 12 13 14 12 7 8 9 14 16 14 14 14 14 14 13 14 14 14 14 14 13 12 13 13 12 10 9 11 12 13 14 12 10 8 6 10 11 10 11 11 10 10 9 9 9 8 8 8 7 7 7 7 6 6 6 6 6 6 5 4 4 3 3 2 2 2 3 4 4 4 5 4 3 5 3 5 5 5 4 3 5 5 5 3 3 3 3 2 1 1 4 7
11 9 6 9 9 12 11 8 8 8 10 9 13 15 14 14 13 16 13 12 11 12 13 14 15 14 12 12 12 12 11 11 11 12 13 13 16 12 7 7 10 11 11 12 11 12 12 11 9 7 8 9 7 6 7 7 6 7 6 6 6 6 5 4 5 5 4 5 3 3 2 3 3 3 4 4 4 5 4 5 5 5 5 6 4 5 6 5 5 4 6 4 3 3 5 6 8
9 10 10 10 8 12 10 8 7 7 7 10 12 12 10 13 15 12 10 12 11 12 14 14 14 13 13 13 13 12 13 11 12 12 13 13 15 13 9 9 10 11 11 12 12 12 9 9 11 10 9 5 3 6 7 7 6 5 6 6 6 6 6 6 6 5 4 4 4 3 4 2 2 3 3 3 3 5 5 4 4 4 4 4 5 6 5 5 5 3 5 4 4 3 5 7 5
11 12 12 10 12 12 9 6 11 9 9 11 10 8 9 10 9 10 10 11 12 12 13 13 13 13 11 11 12 11 12 12 12 13 14 14 16 17 11 10 9 11 10 9 12 12 10 12 13 11 8 7 6 7 6 8 8 7 6 7 7 8 7 6 6 6 5 5 4 4 4 2 2 2 2 3 4 3 3 3 3 3 3 3 3 6 5 8 6 7 5 5 6 6 8 4 4
11 14 15 13 14 10 7 5 7 7 9 12 12 9 11 12 15 14 11 10 12 12 14 15 15 14 13 13 13 12 12 11 12 13 14 13 14 19 17 12 8 10 8 8 11 12 12 12 13 10 7 7 7 7 6 7 8 7 8 8 8 7 7 7 6 6 6 6 5 4 4 3 3 3 2 3 3 3 3 2 2 3 4 3 2 2 4 5 11 10 8 7 8 7 4 4 4
10 11 16 17 15 8 13 13 9 9 9 11 15 12 6 9 14 15 13 13 14 12 13 15 15 14 12 12 12 11 11 11 12 12 12 13 14 16 18 15 13 11 10 8 8 10 12 11 10 7 8 5 5 2 7 6 7 7 8 8 8 7 7 6 6 5 5 5 4 4 4 3 4 3 3 3 3 3 3 2 2 0 2 2 3 2 3 4 4 7 5 6 5 4 4 4 3
11 8 17 16 15 9 9 7 10 9 2 2 13 11 10 7 11 13 15 15 16 16 14 13 14 14 13 11 11 10 10 11 11 13 13 13 14 15 18 21 19 16 10 5 7 10 12 10 9 9 5 5 7 4 10 6 8 8 8 8 7 7 7 8 7 6 5 5 5 5 5 4 3 4 3 3 3 2 2 2 2 2 2 3 3 2 3 3 1 3 5 3 3 3 3 1 4
8 5 11 14 16 10 10 11 10 9 6 9 10 13 10 8 6 11 14 14 17 17 15 12 11 12 11 12 10 10 6 7 10 10 12 13 12 12 15 17 18 19 16 10 7 8 9 8 8 9 5 5 4 12 10 9 9 9 8 7 7 7 8 7 7 6 6 5 5 5 4 5 4 3 3 2 2 3 1 2 2 3 2 3 4 4 3 4 4 4 2 3 3 2 1 4 5
8 8 8 11 13 14 12 10 11 10 9 9 9 10 10 7 9 12 14 14 15 13 11 10 9 9 8 7 8 7 7 7 12 13 8 10 10 10 13 12 14 12 11 7 4 2 10 10 6 8 11 3 3 8 7 7 8 8 7 7 8 8 8 7 6 6 6 5 5 4 4 4 4 4 2 3 2 3 3 2 3 3 3 4 4 4 4 5 5 4 4 3 3 3 2 1 2
4 8 8 10 10 9 7 9 7 5 10 10 10 10 10 6 9 9 9 10 7 9 7 6 10 3 3 5 9 9 10 12 11 4 6 10 8 9 9 10 10 11 10 10 10 8 12 11 12 13 13 11 11 7 5 11 6 6 6 8 8 9 9 7 7 7 6 5 5 5 4 4 4 4 4 3 2 4 3 2 3 2 3 4 4 3 3 4 5 5 4 4 4 4 3 3 3
8 8 10 9 9 9 9 9 10 7 7 9 10 10 10 9 8 13 13 10 13 12 12 11 11 15 10 7 6 11 13 10 7 8 6 9 7 7 4 9 10 11 12 11 10 12 8 10 11 13 11 9 8 8 9 9 5 5 6 8 8 8 8 7 7 7 7 7 6 5 4 3 3 4 4 4 3 3 3 3 2 2 3 3 3 3 3 4 4 5 4 4 4 4 3 3 4
10 10 11 11 7 6 8 9 9 8 6 7 10 10 8 11 6 10 10 12 10 2 11 11 12 15 16 15 13 11 11 8 6 6 6 5 3 15 15 14 12 11 15 8 12 11 10 8 13 14 14 14 10 10 7 6 5 5 6 8 8 7 7 7 7 6 6 5 5 4 4 4 4 4 4 4 4 3 3 2 2 2 3 3 3 4 4 5 5 5 5 5 5 5 4 5 5
12 12 10 9 9 8 8 9 6 8 10 2 7 6 9 5 9 11 5 6 7 7 8 7 5 5 8 9 9 9 7 8 6 6 7 4 15 16 16 15 16 16 14 12 8 7 7 7 9 13 13 11 11 9 8 6 6 6 7 7 8 7 7 7 6 6 5 4 4 4 4 4 4 3 4 3 3 3 3 4 4 4 4 5 5 5 4 4 3 6 6 6 6 6 6 7 6
12 11 11 8 7 7 6 8 8 8 6 10 9 5 5 11 7 6 12 8 8 6 5 5 6 4 3 9 12 9 6 11 13 9 5 13 15 14 14 12 10 8 9 8 9 11 8 7 1 6 12 13 12 11 9 8 7 9 8 7 7 7 7 6 6 5 5 4 4 4 3 3 4 4 4 4 4 5 5 4 4 4 5 5 5 5 5 5 5 6 6 6 6 6 6 7 6
10 11 8 11 7 4 8 2 5 5 3 6 7 5 2 2 7 7 7 12 12 8 5 5 8 11 13 7 13 14 13 7 6 10 13 16 16 15 15 13 11 11 10 8 6 4 6 10 11 6 8 12 12 11 9 9 8 8 10 9 8 7 6 6 5 5 5 4 4 3 3 3 4 4 4 4 5 5 5 6 5 5 5 5 5 5 5 5 5 6 6 6 6 5 6 7 6
8 10 11 8 9 8 5 4 4 3 3 5 3 8 8 8 7 6 4 6 11 12 13 11 11 9 11 10 10 11 11 9 9 11 14 17 16 14 12 10 8 8 8 8 8 6 7 6 7 9 8 7 9 9 9 9 7 7 9 9 7 7 7 6 6 6 6 5 4 3 4 4 6 5 5 5 5 5 5 5 5 5 5 5 5 6 6 6 5 6 6 6 6 6 7 7 6
4 10 9 8 3 7 5 4 5 5 8 5 7 7 8 10 4 12 14 9 9 8 8 8 7 8 10 11 11 11 12 11 11 15 16 15 15 12 10 8 7 6 9 10 8 6 4 3 5 8 6 6 6 7 7 7 7 7 8 8 7 7 6 6 7 7 6 5 4 3 4 5 6 6 5 5 5 5 5 5 5 5 5 5 5 5 6 6 6 6 6 6 6 5 6 5 5
11 6 2 10 6 9 7 3 5 5 6 6 7 7 8 6 7 12 11 12 9 9 9 10 7 9 10 11 13 13 14 12 11 11 12 13 11 10 9 9 8 8 8 9 9 8 7 6 5 8 8 6 5 4 5 5 6 5 6 7 7 6 6 7 7 7 6 5 5 4 5 5 6 6 6 6 6 6 5 5 5 5 5 5 5 5 5 5 6 6 6 6 5 5 5 6 5
14 10 10 6 8 5 5 5 6 6 6 5 6 9 4 6 2 9 10 10 11 10 9 10 9 9 8 9 10 11 12 12 13 12 11 10 10 10 10 10 10 7 5 6 7 7 8 5 4 7 8 7 6 5 4 5 5 5 5 6 6 6 7 8 8 7 6 6 6 5 5 6 6 6 6 7 6 6 6 6 5 5 6 6 6 5 5 6 5 5 5 6 5 6 6 6 6
12 12 11 8 7 2 6 3 9 7 5 5 4 7 5 5 9 11 7 8 10 10 9 9 9 9 9 8 8 7 7 8 12 13 11 10 9 9 9 8 6 6 5 4 3 7 8 6 4 6 7 7 6 6 5 5 5 5 6 8 8 7 8 7 8 7 7 6 5 6 6 6 6 6 6 6 6 6 6 6 6 6 6 6 6 6 5 5 5 5 6 6 6 6 6 6 6
11 11 11 12 9 9 9 7 6 10 6 5 6 3 6 4 4 6 5 7 11 10 10 10 11 11 10 9 8 9 10 10 9 9 9 9 11 10 9 9 7 6 5 5 4 6 6 7 4 5 8 7 7 5 5 5 5 4 7 7 8 8 8 7 7 7 7 7 6 6 6 6 6 6 7 7 7 6 5 6 6 6 7 7 7 7 6 5 6 6 6 4 5 6 7 6 5
Wind_Direction
233 222 225 227 237 236 218 204 232 198 233 242 253 229 246 207 246 219 236 88 258 158 271 232 222 213 260 344 350 42 30 30 24 309 69 132 120 118 116 122 131 127 133 130 128 139 142 136 133 131 132 133 134 132 132 132 129 125 127 127 125 118 115 119 124 126 131 130 130 130 131 130 130 132 134 135 136 136 133 135 135 139 136 134 126 127 128 126 124 124 119 112 108 107 105 109 104
218 209 228 223 227 226 209 213 250 214 211 244 238 251 243 204 112 239 254 254 8 79 226 273 165 258 307 264 316 155 68 56 59 81 86 114 127 119 122 129 128 126 126 132 139 141 144 142 136 134 134 132 134 132 131 130 129 129 129 125 119 119 120 128 134 134 133 135 134 134 133 132 132 133 134 132 126 132 136 138 142 141 138 136 128 129 130 131 132 129 122 115 112 108 110 111 105
208 213 198 213 228 236 276 197 237 244 222 224 236 229 225 162 222 206 54 296 78 78 241 135 136 194 196 237 187 287 92 77 76 91 109 147 129 116 127 126 129 126 131 138 141 145 142 145 139 137 134 133 132 129 127 126 128 128 126 123 126 125 128 134 136 138 140 140 136 136 135 135 134 133 132 130 117 118 124 130 133 124 125 128 133 134 137 136 131 130 121 122 115 113 114 110 108
284 216 207 195 201 213 237 212 241 246 238 238 242 220 209 218 244 122 98 71 143 212 222 180 203 64 289 199 74 92 91 64 73 96 124 150 110 132 128 130 136 129 138 148 145 142 148 143 143 141 136 134 133 131 129 129 129 130 127 128 130 133 137 139 140 143 143 139 135 134 135 137 136 135 135 131 119 114 108 110 116 129 135 136 137 139 136 135 131 128 126 121 119 119 115 111 105
250 211 250 214 260 203 233 232 231 237 252 244 241 59 136 197 105 94 143 169 268 221 206 148 233 239 36 37 271 160 99 102 113 117 108 98 123 133 134 137 139 138 145 153 148 143 138 145 147 144 142 138 135 134 133 132 133 133 132 132 134 136 138 140 143 143 141 137 137 138 138 137 137 134 129 124 115 113 114 118 127 131 131 128 127 119 121 126 134 136 128 125 120 118 116 112 112
235 222 210 253 232 350 269 237 226 235 247 269 271 92 80 61 76 194 110 185 191 240 218 183 209 178 174 57 358 61 14 168 94 114 127 129 133 133 144 151 149 140 148 147 143 145 147 146 147 147 146 141 140 138 137 136 136 134 134 135 137 137 139 140 142 140 140 141 142 141 139 132 124 120 107 105 112 114 113 118 131 121 120 122 121 119 123 134 139 127 130 130 124 119 121 123 113
198 213 193 225 258 252 245 236 236 233 231 254 270 84 176 105 247 154 211 212 181 233 209 217 169 163 139 124 88 68 83 40 159 125 140 133 139 147 148 146 146 144 145 145 146 141 145 146 146 149 150 148 142 140 139 140 138 139 138 137 136 138 141 141 141 142 143 145 145 139 126 121 122 113 109 110 104 105 108 106 103 111 121 124 126 130 132 134 132 135 131 128 123 122 120 117 115
228 225 166 222 222 200 226 244 248 233 223 217 237 46 70 350 355 216 219 242 176 228 177 218 182 195 62 179 108 94 82 53 86 120 126 139 141 149 158 148 150 144 145 144 140 140 141 145 148 151 152 149 146 144 146 145 144 139 138 137 139 139 140 141 140 140 138 143 142 132 128 127 130 128 116 105 124 125 117 103 91 74 110 124 127 128 132 134 139 138 131 130 122 118 125 123 119
222 244 192 233 241 209 235 234 240 236 258 162 262 276 39 269 261 310 273 222 38 243 160 206 180 219 176 134 104 103 90 102 93 116 134 142 148 153 156 159 149 148 143 144 135 138 148 146 151 153 154 153 152 149 148 146 144 141 140 141 140 137 137 137 136 131 123 120 121 138 129 132 133 136 132 132 146 130 108 107 104 110 118 121 121 117 114 111 109 117 124 130 130 133 129 134 132
216 221 191 234 240 234 229 229 237 231 241 204 246 92 353 29 246 237 257 224 230 208 212 193 183 209 157 101 129 143 101 100 120 132 138 144 152 154 154 153 146 143 140 136 139 143 145 150 151 153 154 154 153 149 148 146 144 143 140 136 135 135 131 131 128 128 126 131 153 155 137 133 134 136 134 134 129 118 118 120 129 138 125 122 118 115 118 119 117 124 133 136 135 132 134 146 140
215 204 265 233 232 242 227 232 227 232 233 183 231 223 240 237 251 244 232 257 212 219 188 194 172 204 114 123 96 80 116 128 142 136 143 144 154 156 151 155 149 144 138 138 142 143 144 153 152 155 154 152 151 151 148 146 146 143 139 136 133 130 131 126 120 125 134 136 147 143 137 135 134 134 143 137 143 129 125 123 122 118 117 115 119 120 126 121 127 133 131 133 132 127 131 143 127
225 209 205 237 237 239 229 247 224 232 192 119 238 159 136 254 259 250 226 234 224 230 189 130 207 207 133 124 155 130 142 152 134 137 143 152 152 156 151 152 149 138 134 140 142 142 148 149 157 157 156 153 151 150 149 147 146 142 137 134 130 126 121 119 120 127 126 137 139 124 123 127 129 133 137 138 137 130 126 126 119 119 119 117 113 109 115 126 132 133 136 135 138 128 116 104 97
243 221 219 241 243 235 256 250 260 290 176 179 230 110 128 241 234 243 252 235 218 223 169 195 138 212 116 163 130 142 161 141 141 141 144 155 155 151 154 146 139 131 140 141 146 148 152 155 157 161 159 159 153 150 147 144 136 133 130 128 123 122 123 122 128 129 125 129 129 125 126 122 124 132 137 138 132 125 127 128 125 121 122 122 119 116 115 125 134 137 131 134 142 139 132 100 91
231 241 236 239 248 265 253 249 250 234 219 245 168 120 149 281 209 266 261 245 221 227 173 185 199 178 107 107 150 163 149 144 145 150 152 150 152 155 144 131 131 128 141 149 153 153 156 159 159 163 160 161 156 145 145 140 132 122 129 120 120 122 121 122 125 124 123 128 127 124 123 124 126 130 134 134 129 126 125 127 130 129 126 121 121 124 131 130 133 132 134 139 146 164 145 129 122
236 240 268 261 253 245 243 264 241 224 265 163 92 226 254 182 272 240 246 238 219 204 121 136 227 196 189 168 158 178 153 147 148 150 153 158 154 152 135 132 128 144 166 147 149 160 159 156 159 158 160 162 154 159 141 129 120 130 113 106 114 116 119 120 122 126 127 126 124 124 123 123 126 127 131 136 134 138 140 139 132 135 130 127 126 127 130 130 128 135 136 137 151 161 156 136 136
244 256 254 257 247 250 221 231 249 309 120 121 117 202 237 127 241 245 223 280 76 101 178 154 1 205 175 215 154 152 152 154 149 155 158 159 155 148 142 144 135 132 129 125 154 164 164 158 152 164 170 165 151 113 124 129 105 93 105 115 132 123 118 120 116 122 129 129 126 122 128 129 132 132 137 139 143 142 152 146 136 135 134 129 129 133 135 135 135 135 137 146 149 169 179 180 155
234 257 252 237 248 238 241 224 219 229 95 199 146 165 254 170 141 259 330 238 177 146 202 156 175 170 165 196 140 133 149 151 151 154 159 159 161 151 149 149 133 137 144 156 156 148 159 181 168 156 148 134 140 127 140 113 117 119 125 123 131 124 117 114 117 120 127 126 128 131 145 148 148 149 156 150 146 154 143 133 142 136 136 140 140 141 142 144 144 143 150 158 172 173 191 193 192
219 223 235 237 242 239 234 246 216 322 35 87 155 133 245 227 183 152 232 202 198 173 168 92 119 60 95 99 114 128 143 148 153 153 162 162 167 158 158 155 158 151 160 159 183 158 177 195 177 132 160 157 116 96 81 118 121 140 127 154 136 135 130 129 135 136 117 118 113 116 22 327 172 169 169 149 166 145 142 144 139 140 143 148 150 153 153 155 156 158 163 174 182 195 188 189 192
222 223 232 242 229 247 269 275 269 120 234 99 69 229 239 7 190 146 211 199 168 177 163 174 133 117 117 120 138 137 151 152 154 156 162 168 171 162 165 165 159 158 154 165 180 170 191 182 176 152 139 157 95 100 114 127 115 128 133 134 129 129 133 138 127 104 85 72 35 9 1 318 339 0 321 137 96 155 131 146 140 144 150 156 161 165 167 164 164 166 177 191 206 208 205 211 171
222 240 227 233 252 260 30 315 360 268 28 256 205 124 261 92 234 140 217 186 177 173 160 172 133 144 147 129 145 150 151 154 155 156 169 175 166 162 160 160 163 158 158 159 155 151 163 182 199 150 124 102 127 130 109 120 136 145 133 133 138 124 126 106 86 80 95 135 165 259 199 249 32 336 16 39 252 136 136 148 152 155 166 167 169 172 173 173 170 177 187 210 217 211 212 219 187
198 234 240 236 224 251 208 241 251 282 261 333 250 83 244 181 198 176 206 186 192 169 169 166 171 157 157 149 149 151 155 155 158 167 174 171 176 162 163 176 170 153 134 143 120 100 92 242 266 92 117 151 123 111 138 146 138 135 140 145 134 121 114 102 112 166 157 169 149 178 229 121 199 176 183 125 248 205 163 173 172 187 185 188 179 191 182 173 184 184 192 217 214 211 211 207 241
231 227 240 254 271 300 317 229 182 277 304 280 275 221 227 109 227 198 217 190 212 189 169 179 144 166 173 152 151 155 157 158 161 170 171 180 177 169 166 180 165 135 125 103 112 153 174 204 139 113 126 123 126 134 146 134 137 139 146 139 130 118 109 121 143 104 96 136 179 192 175 108 227 195 170 167 77 38 26 322 211 205 217 195 197 212 196 177 200 195 200 200 230 215 195 199 207
239 229 237 247 261 296 246 205 145 225 225 219 224 233 357 235 199 232 171 205 201 83 112 102 139 137 166 147 150 158 158 165 171 171 179 181 173 169 172 170 141 162 102 63 337 206 154 52 107 126 121 131 139 138 135 132 132 138 145 139 128 108 100 145 184 166 162 196 215 202 183 173 180 179 168 138 130 89 123 285 302 296 252 233 189 233 204 193 201 204 240 220 213 196 200 186 191
229 247 222 235 248 235 269 248 154 222 243 239 243 8 244 226 245 187 228 215 176 90 164 78 39 157 159 155 149 157 166 170 175 175 181 173 176 172 169 159 157 93 83 139 248 239 82 127 143 119 128 130 130 134 127 124 126 134 133 131 120 139 161 171 155 175 184 175 200 223 200 164 164 166 164 135 158 161 126 124 284 291 271 267 242 182 240 220 187 199 192 211 208 184 199 195 195
222 238 248 242 225 223 239 245 240 227 220 235 255 248 233 229 252 139 220 202 150 186 165 162 218 150 154 149 157 156 165 174 174 170 175 170 171 155 156 149 105 92 122 173 199 109 117 155 112 109 112 126 129 128 117 122 126 128 133 137 138 151 152 152 173 178 163 175 189 242 188 197 170 157 163 136 200 65 84 155 166 242 273 289 250 195 250 226 268 323 257 213 215 181 185 209 195
221 241 243 243 239 242 235 239 239 236 230 219 230 234 237 234 252 263 224 192 145 159 198 186 197 152 158 158 162 159 167 173 173 173 173 166 150 147 141 135 100 98 121 183 172 116 150 120 122 117 117 127 128 130 130 138 140 140 139 146 149 149 134 148 178 168 170 176 155 234 234 199 199 168 164 166 211 121 208 198 213 204 236 261 355 343 23 350 17 349 265 243 192 204 173 186 196
207 226 240 247 230 222 226 237 228 226 232 221 229 226 226 221 218 221 229 169 160 183 189 194 185 165 163 156 161 166 164 175 177 168 166 161 150 148 145 131 109 124 159 188 166 132 124 130 128 127 130 123 129 130 132 133 133 111 129 148 153 144 131 159 169 168 184 193 169 199 211 205 185 138 133 177 220 172 185 247 246 334 299 345 359 347 27 40 32 325 327 276 214 212 154 168 211
271 290 243 236 243 235 237 226 236 226 220 225 226 231 230 215 205 242 207 161 179 191 189 190 190 168 163 159 163 164 170 173 174 173 165 163 157 153 145 116 109 138 184 185 160 143 140 134 130 125 121 125 113 123 133 131 125 140 169 158 155 145 148 164 163 172 181 190 184 186 169 172 156 128 146 177 201 231 273 285 310 280 286 340 11 18 15 26 74 320 309 311 281 266 170 173 255
245 235 257 242 233 236 231 233 224 223 233 206 215 240 228 206 221 222 234 157 178 200 192 198 194 173 169 154 167 163 167 171 171 172 165 155 147 143 138 123 133 155 210 166 149 158 140 133 131 124 128 126 133 139 138 137 131 147 158 171 150 146 154 167 163 170 174 196 188 194 228 195 171 163 173 198 196 170 185 194 256 239 229 310 326 0 357 354 360 25 337 308 305 261 212 200 204
242 243 245 245 232 233 225 223 229 220 219 214 201 223 222 212 216 227 196 178 181 202 206 194 200 176 164 162 173 165 159 171 174 170 158 150 142 144 144 144 152 163 180 165 152 162 149 140 134 133 140 143 142 142 147 146 158 156 167 159 148 154 163 174 168 163 166 200 210 192 207 210 206 203 184 188 228 199 194 175 209 244 191 158 322 337 349 30 15 33 358 314 316 329 330 252 215
228 235 233 244 243 233 210 211 210 223 201 216 197 234 222 214 210 217 204 180 205 207 205 203 198 182 166 175 173 170 167 174 170 158 152 135 144 148 142 158 167 171 178 170 170 166 156 148 147 139 147 146 147 148 166 151 146 116 151 159 153 159 164 182 170 167 184 191 196 205 200 195 198 203 202 204 213 161 210 169 235 214 144 132 166 138 85 57 38 64 275 264 300 324 313 268 226
226 228 223 225 240 241 222 195 202 213 186 197 201 234 244 237 203 202 193 183 191 209 207 205 198 187 171 176 180 172 163 161 158 147 146 146 145 148 153 164 173 181 185 180 171 162 152 149 154 145 146 146 147 157 163 148 147 158 150 145 143 150 166 182 183 179 187 187 203 216 202 203 201 199 205 202 221 227 107 181 224 291 105 158 168 125 252 178 150 91 249 210 299 293 335 308 330
212 228 231 224 218 236 244 174 194 200 202 181 213 233 223 246 247 188 163 188 193 205 204 204 196 190 173 180 183 168 161 160 151 151 151 151 148 153 158 165 175 184 187 177 166 163 157 147 149 145 142 144 150 170 160 143 150 140 148 143 148 157 168 183 190 175 177 189 203 206 177 186 211 207 209 206 224 157 213 128 244 129 110 257 73 317 215 354 131 189 222 254 272 154 305 314 210
210 210 239 229 222 213 242 155 196 190 218 193 202 229 237 252 266 132 161 199 197 213 209 198 197 187 186 184 176 172 165 160 164 157 169 164 154 163 168 173 180 182 185 176 181 175 169 151 151 141 138 156 162 170 162 150 150 142 144 139 140 154 164 162 168 167 166 173 177 177 173 167 199 190 198 196 247 180 174 170 144 141 165 153 120 78 106 155 220 252 231 228 187 236 262 318 348
210 207 220 232 231 222 230 201 171 206 206 222 192 219 237 215 145 178 188 203 205 213 213 200 193 191 193 193 178 174 173 175 171 170 170 165 162 161 170 173 181 182 180 180 180 178 176 154 147 133 139 153 181 164 155 153 147 149 136 143 144 155 163 161 158 171 165 166 179 173 165 165 178 165 177 178 211 137 242 159 143 150 173 159 141 124 172 162 149 213 246 260 287 261 296 292 269
224 214 218 231 224 207 228 225 170 198 189 210 207 208 218 242 207 173 184 202 204 213 212 202 193 193 194 195 183 173 172 176 173 173 174 163 159 159 171 176 171 181 189 179 177 166 170 145 137 130 144 155 160 170 159 166 162 156 147 147 150 143 151 132 160 135 134 158 138 153 161 168 159 164 165 171 182 215 122 174 100 127 133 167 155 154 199 157 167 176 210 222 281 327 293 276 240
272 229 217 227 231 220 216 238 136 189 211 205 220 216 216 221 232 181 191 193 206 214 207 206 198 194 197 193 183 176 178 177 181 173 168 168 155 132 200 169 162 169 191 181 174 172 160 143 134 142 149 168 193 178 171 170 166 155 152 156 151 150 152 136 144 128 144 88 132 147 154 162 159 156 157 161 167 177 168 109 109 151 177 145 155 137 148 155 149 162 160 326 286 299 302 249 240
281 263 238 221 223 235 190 217 140 184 239 193 215 227 219 224 222 221 185 190 204 211 207 203 205 196 195 192 180 178 177 171 173 171 178 169 145 144 200 157 162 171 176 176 174 174 153 144 147 150 150 193 194 180 163 171 163 154 159 156 151 154 141 161 150 142 118 116 126 125 137 153 146 155 158 153 148 142 113 157 131 132 130 143 155 142 151 145 152 151 159 184 238 304 290 224 287
245 263 235 247 212 248 184 189 136 166 204 241 209 220 224 216 220 231 191 185 211 212 210 201 215 200 195 187 179 176 172 178 178 178 179 173 142 144 207 184 169 179 177 173 176 178 158 154 147 155 170 181 191 176 180 162 166 150 165 147 155 138 129 137 134 116 146 134 120 125 129 136 141 138 142 145 144 136 127 122 142 152 163 151 157 158 166 144 149 173 192 179 189 218 235 248 233
234 231 251 223 225 210 199 152 189 183 211 222 221 219 223 231 222 227 175 189 210 211 209 205 213 207 195 187 179 177 176 177 182 187 192 179 147 153 196 192 177 179 180 177 175 176 163 158 144 180 169 150 112 268 190 148 133 141 128 137 118 117 112 98 106 130 119 133 138 123 113 119 123 136 144 127 123 117 121 123 133 135 133 168 166 157 166 154 148 195 201 203 201 199 245 228 222
228 242 238 237 228 211 237 188 206 195 209 247 277 240 223 217 202 213 205 200 207 201 208 208 206 211 191 182 176 184 184 183 186 194 193 184 163 154 184 196 177 189 190 182 173 175 175 167 165 165 147 142 131 260 195 141 134 144 128 125 105 107 125 135 140 138 140 129 131 143 113 106 126 90 92 114 101 92 94 106 106 130 133 152 162 171 153 155 167 233 189 202 192 222 213 192 204
213 224 243 245 238 220 181 117 183 193 213 205 226 231 233 201 202 215 199 193 206 200 207 207 202 203 184 186 182 192 189 189 193 196 195 188 179 155 163 177 191 203 211 198 167 175 168 167 160 154 130 139 131 231 201 147 146 151 151 148 147 152 144 154 145 137 146 160 122 109 120 121 85 77 93 77 70 91 114 117 139 163 161 161 178 169 152 150 151 186 186 202 209 222 249 194 191
235 198 219 245 267 241 221 172 207 220 227 184 198 241 234 199 200 208 192 194 208 206 206 206 203 200 186 188 180 184 189 192 198 201 197 195 192 166 146 157 172 216 223 210 172 168 169 155 154 131 129 135 111 263 245 145 155 159 162 159 158 151 145 134 130 140 124 110 123 129 107 103 108 108 90 95 76 58 61 66 89 40 103 167 150 170 159 159 168 163 185 188 207 210 214 223 220
237 213 189 225 241 238 237 248 212 243 251 102 206 217 250 213 195 199 183 196 200 199 200 206 202 197 190 182 180 182 191 210 200 202 201 197 195 179 157 165 175 180 202 214 189 164 164 153 140 128 116 110 115 193 244 158 167 165 170 160 154 150 139 129 135 122 115 120 126 134 136 132 128 111 118 99 114 105 76 99 101 101 167 144 153 134 139 142 115 123 138 174 212 192 169 339 306
245 242 178 209 224 222 220 229 237 242 229 229 204 221 241 229 225 186 169 202 202 201 195 195 204 208 181 178 178 178 199 214 241 216 203 199 197 188 159 168 163 168 166 184 198 172 143 122 118 104 84 82 109 195 222 188 170 170 166 156 156 132 129 136 134 133 128 129 140 145 143 126 112 104 92 87 60 81 114 78 55 69 43 82 110 123 109 105 107 107 120 167 180 161 147 177 207
205 248 211 219 211 223 220 224 232 234 225 235 233 208 239 213 197 177 176 206 198 191 186 185 207 193 190 173 162 169 200 230 233 227 225 204 200 191 180 169 160 151 114 106 153 59 70 102 82 88 68 73 81 297 272 201 168 170 164 154 136 132 139 137 136 130 131 145 135 132 128 136 132 129 124 100 111 121 96 126 94 78 79 66 63 73 99 98 99 94 85 61 57 67 47 56 54
60 250 212 222 216 220 218 248 245 247 238 237 228 218 230 225 158 176 188 211 171 208 180 174 179 54 224 168 180 187 201 211 223 232 235 229 193 197 176 150 119 97 96 91 60 51 134 135 146 141 169 172 153 180 282 284 174 185 155 141 135 137 138 137 134 143 143 148 142 147 157 139 148 129 128 125 97 91 95 76 96 96 78 55 66 96 81 93 97 91 85 77 70 55 68 67 78
195 224 223 196 208 212 218 215 221 223 239 241 223 219 210 245 195 209 198 183 176 181 176 179 167 164 185 190 210 195 205 202 202 204 222 243 211 171 83 47 24 40 72 88 110 125 154 145 145 148 163 161 167 177 181 235 209 177 144 140 139 137 139 144 146 146 153 149 148 154 145 151 138 142 143 128 118 101 105 101 91 83 64 66 74 54 84 109 96 88 80 78 70 70 81 91 83
228 222 226 210 198 209 212 209 214 219 230 216 222 199 209 220 54 354 137 129 80 54 160 170 182 174 177 171 185 205 212 196 202 210 205 240 88 46 67 78 68 66 91 120 148 162 151 159 154 151 158 165 158 174 205 205 226 148 141 144 139 141 147 148 149 146 148 146 154 149 154 157 151 154 147 126 108 119 115 123 120 82 92 73 63 89 70 64 85 90 95 90 83 77 75 84 83
212 219 215 203 208 202 227 214 214 225 216 117 229 173 237 211 124 139 47 91 125 70 66 143 158 106 163 174 197 188 203 188 192 213 205 133 79 108 108 128 133 135 143 157 159 133 152 157 166 148 150 154 157 173 185 199 188 141 151 150 143 149 150 152 150 148 148 143 148 151 168 154 154 142 135 123 119 111 81 73 68 71 77 89 84 70 71 80 112 108 95 92 90 85 85 85 84
214 226 228 221 220 209 220 236 220 225 225 178 201 184 218 222 122 122 134 135 126 105 109 132 155 130 174 193 171 198 189 215 195 170 127 92 115 116 117 114 119 115 128 143 139 138 122 95 96 126 140 152 160 164 176 176 161 149 148 150 154 153 151 156 153 143 148 143 145 163 157 150 137 138 131 110 102 95 108 108 105 99 89 88 95 100 91 71 59 78 84 80 77 75 76 79 72
210 224 234 225 222 211 250 55 349 358 269 183 181 217 160 248 116 116 136 132 124 138 139 159 129 182 172 151 144 166 170 143 105 94 91 98 104 108 108 114 115 121 117 101 80 78 117 129 132 173 171 154 157 160 160 165 160 153 150 162 162 154 151 155 145 144 141 142 147 160 137 140 130 128 116 118 117 118 113 120 123 115 112 109 105 103 96 87 86 92 95 95 96 96 96 92 96
171 220 219 235 233 234 249 236 216 163 273 251 189 214 141 144 149 117 120 127 136 149 149 157 156 130 119 115 128 130 105 126 111 102 97 102 104 103 108 106 113 126 128 124 132 130 128 127 135 147 162 157 152 155 155 161 155 157 157 162 159 152 150 154 140 139 136 137 142 138 146 143 122 127 129 124 124 126 121 113 113 113 109 102 91 89 95 101 99 95 93 85 79 71 68 67 71
239 221 220 224 276 296 250 264 157 223 231 221 201 213 191 195 180 187 164 181 135 125 114 94 98 94 87 97 106 113 114 108 110 105 104 108 113 116 118 122 123 127 121 121 116 92 71 115 133 129 138 139 145 148 149 153 158 162 167 164 162 152 147 138 133 133 135 143 142 150 141 142 146 137 141 137 133 127 120 116 113 114 112 110 108 94 90 98 100 97 92 90 87 92 91 87 80
258 265 211 238 181 218 224 256 240 225 221 237 217 198 241 205 193 165 171 149 122 112 122 113 87 88 87 86 90 95 96 97 93 94 105 122 130 141 145 139 122 112 114 115 111 108 104 113 126 118 125 124 131 138 144 150 159 165 173 168 157 144 135 134 132 133 137 144 150 152 157 150 142 149 147 143 145 139 138 126 124 122 121 116 107 109 109 94 95 98 96 98 100 97 96 93 87
239 270 272 242 262 246 228 213 250 237 231 220 228 205 221 357 106 167 155 121 125 133 124 118 124 102 100 95 93 98 98 103 101 93 92 92 111 118 124 123 124 116 79 54 81 88 89 99 124 116 117 124 127 127 120 132 147 163 163 159 156 148 143 140 139 141 151 152 154 159 161 150 153 159 150 155 154 148 143 147 140 132 132 127 128 126 117 112 108 105 107 94 95 110 110 109 112
203 217 234 228 232 228 255 255 250 230 237 234 227 222 108 41 22 81 109 127 130 127 124 123 112 106 105 101 95 85 85 104 119 121 119 109 99 99 101 108 101 90 83 90 84 93 106 112 126 131 130 137 144 152 153 149 149 157 166 167 162 159 144 142 141 148 153 161 165 164 163 157 159 160 158 164 160 159 154 153 149 149 137 132 128 125 125 122 116 110 100 110 116 110 107 98 94
222 214 222 232 227 212 220 229 238 264 264 234 217 212 100 54 338 68 112 135 124 128 124 114 112 104 92 93 93 102 103 93 93 110 115 126 124 122 120 114 105 90 98 96 107 88 81 100 121 136 135 133 140 163 179 176 177 170 177 170 169 157 151 155 149 167 163 168 168 170 161 164 165 158 173 169 165 161 159 160 156 149 142 138 137 131 134 128 116 113 117 124 127 119 99 103 118